Tracking 17784 objects as of 24-July-2016
HD Live streaming from Space Station
objects crossing your sky now

THORAD AGENA D DEB

Track THORAD AGENA D DEB now!
10-day predictions


NORAD ID: 4935
Int'l Code: 1970-025GB
Perigee: 912.0 km
Apogee: 1,010.0 km
Inclination: 99.8 °
Period: 104.1 minutes
Semi major axis: 7332 km
RCS: 0.0346 m2 (small)
Launch date: April 8, 1970
Source: United States (US)
Launch site: AIR FORCE WESTERN TEST RANGE (AFWTR)

Note: This is SATELLITE DEBRIS
Your satellite tracking list
Your tracking list is empty





NASA's NSSDC Master Catalog

Two Line Element Set (TLE):
1  4935U 70025GB  16205.63219556 +.00000229 +00000-0 +24958-3 0  9990
2  4935 099.8449 099.7639 0066827 107.0441 282.8951 13.82828475316817
Source of the keplerian elements: AFSPC

N2YO: 884